Regional Weather Roundup
Issued by NWS Grand Forks, ND

Home | Current Version | Previous Version | Text Only | Print | Product List | Glossary Off
Versions: 1 2 3 4 5 6 7 8 9 10 11 12 13 14 15 16 17 18 19 20 21 22 23 24 25 26 27 28 29 30 31 32 33 34 35 36 37 38 39 40 41 42 43 44 45 46 47 48 49 50

477
ASUS43 KFGF 180431
RWRFGF
PRAIRIE TO PINES  WEATHER ROUNDUP
NATIONAL WEATHER SERVICE EASTERN NORTH DAKOTA/GRAND FORKS ND
1000 PM CST SUN DEC 17 2017

 **SATELLITE DATA USED TO AUGMENT SKY COVER AT AUTOMATED STATIONS**
 *****  WEATHER ACROSS EASTERN NORTH DAKOTA  *****

CITY           SKY/WX    TMP DP  RH WIND       PRES   REMARKS
GRAND FORKS    MOCLDY    23  22  96 S12       29.76F WCI  12
GRAND FRKS AFB CLOUDY    30  24  78 S12       29.74F WCI  20
GRAND FRKS NWS   N/A     23 N/A N/A S5          N/A  WCI  17
DEVILS LAKE    CLOUDY    32  24  72 S17       29.67F WCI  21
FARGO          CLOUDY    31  31 100 S12       29.83F FOG     WCI  22
WAHPETON ARPT    N/A     27  23  86 SE10      29.85F WCI  17
$$

 ***** WEATHER ACROSS CENTRAL AND WESTERN NORTH DAKOTA  *****

CITY           SKY/WX    TMP DP  RH WIND       PRES   REMARKS
BISMARCK       CLOUDY    36  24  62 SW9       29.75F
MINOT          MOCLDY    35  22  58 SW13      29.64F
JAMESTOWN      FAIR      31  24  75 S9        29.75F WCI  23
MINOT AFB      FAIR      31  21  67 W9        29.63F WCI  23
GARRISON         N/A     33  25  72 W10       29.68F WCI  25
WILLISTON      FAIR      32  21  64 SW7       29.67F
DICKINSON      CLOUDY    34  20  56 W14       29.70F WCI  25
HETTINGER      CLOUDY    32  20  61 W10       29.77F WCI  24
$$

 *****  OTHER AIRPORT OBSERVATIONS IN OUR AREA  *****

CITY           SKY/WX    TMP DP  RH WIND       PRES   REMARKS
WALHALLA       FAIR      34  23  64 SW15G26   29.64F WCI  24
GRAFTON AIRPOR NOT AVBL
VALLEY CITY AR NOT AVBL
CANDO          CLOUDY    32  28  86 SW14      29.65F WCI  22
CAVALIER APRT  FAIR      25  23  93 S10       29.67F WCI  15
GWINNER          N/A     30  28  93 SW8       29.82F WCI  23
SHEYENNE NWR     N/A     24  24 100 S5        29.95S WCI  18
ROLLA          CLOUDY    30  27  86 SW12      29.61S WCI  21
 ***** THE ABOVE OBSERVATIONS ARE NON NWS ARE NOT QUALITY
       CONTROLLED AND MAY MIS-REPORT RAIN FOR SNOW...
$$

  *****  WEATHER ACROSS NORTHERN MINNESOTA  *****

CITY           SKY/WX    TMP DP  RH WIND       PRES   REMARKS
FLAG ISLAND    MOCLDY    12  10  92 SE7       29.71F WCI   2
WARROAD        MOCLDY    19  16  86 S6        29.73F WCI  11
ROSEAU         LGT SNOW  25  19  80 S15       29.72F WCI  12
HALLOCK        CLOUDY    25  23  93 S20       29.70F WCI  11
THF RVR FALLS  LGT SNOW  27  27 100 S17       29.77F FOG     WCI  14
BAUDETTE       MOCLDY    22  21  96 S8        29.75F WCI  12
WASKISH        FAIR      25  23  93 S8        29.79F WCI  16
CROOKSTON      CLOUDY    28  28 100 S17       29.78F FOG     WCI  16
STEPHEN NDAWN    N/A     27  25  93 S18         N/A  WCI  13
GREENBUSH NDAW   N/A     25  25 100 S15         N/A  WCI  12
$$
  *****  WEATHER ACROSS CENTRAL AND WEST MINNESOTA  *****

CITY           SKY/WX    TMP DP  RH WIND       PRES   REMARKS
FOSSTON        CLOUDY    23  21  93 S10       29.81F FOG     WCI  12
BEMIDJI        CLOUDY    25  24  97 S8        29.81F WCI  16
PARK RAPIDS    CLOUDY    25  23  92 S8        29.85S FOG     WCI  16
ELBOW LAKE     CLOUDY    26  25  97 SE9       29.88S FOG     WCI  16
WADENA         CLOUDY    25  25 100 S7        29.87S FOG     WCI  17
DETROIT LAKES  FOG       28  28 100 S8        29.84F VSB 3/4 WCI  20
MOORHEAD       MOCLDY    27  27 100 S12       29.84F FOG     WCI  16
FERGUS FALLS   FAIR      23  23 100 S9        29.89F FOG     WCI  13
MORRIS MN      CLOUDY    28  27  93 S8        29.88S FOG     WCI  20
STAPLES        CLOUDY    25  25 100 S7        29.88F FOG     WCI  17
$$
  *****  WEATHER ELSEWHERE ACROSS MINNESOTA  *****

CITY           SKY/WX    TMP DP  RH WIND       PRES   REMARKS
DULUTH         CLOUDY    24  21  88 SW6       29.88F WCI  17
INTRNTL FALLS  MOCLDY    24  21  88 S8        29.79F FOG     WCI  15
ELY            CLOUDY    21  21 100 SW7       29.84F WCI  13
CLOQUET        CLOUDY    25  19  80 S5        29.89S WCI  19
WHEATON        CLOUDY    30  27  86 SE9       29.89S WCI  22
BRAINERD       CLOUDY    25  20  81 S8        29.89F WCI  16
HIBBING        CLOUDY    23  22  96 SW3       29.86F
ALEXANDRIA     CLOUDY    27  25  92 S7        29.88F WCI  19
SAINT CLOUD    CLOUDY    24  21  88 S5        29.93F WCI  18
MINNEAPOLIS    CLOUDY    27  25  92 S7        29.96F FOG     WCI  19
$$

  *****  WEATHER ACROSS SOUTH DAKOTA  *****

CITY           SKY/WX    TMP DP  RH WIND       PRES   REMARKS
SIOUX FALLS    CLOUDY    32  29  88 S6        29.92F
BROOKINGS      CLOUDY    33  26  75 SW8       29.89F
WATERTOWN      CLOUDY    32  30  92 S12       29.86F WCI  23
HURON          CLOUDY    36  29  75 MISG      29.88F
SISSETON         N/A     35  32  88 SE9       29.85F
ABERDEEN       MOCLDY    31  29  92 S8        29.85F WCI  23
MITCHELL       CLOUDY    36  29  75 S8        29.91F
PIERRE         FAIR      31  27  85 SW6       29.83F
MOBRIDGE       CLOUDY    33  28  81 S6        29.78F
RAPID CITY     FAIR      25  17  72 NW7       29.86R WCI  17
$$

  *****  SOME WEATHER IN NEARBY STATES *****

CITY           SKY/WX    TMP DP  RH WIND       PRES   REMARKS
GLASGOW MT     FAIR      34  22  61 W7        29.68F
GREAT FALLS MT FAIR      36  22  56 SW31G45   29.78S
CHEYENNE WY    FAIR      30  17  58 SW10      29.92S WCI  21
SCOTTSBLUFF NE FAIR      24  13  62 NW5       29.92F WCI  18
OMAHA NE       MOCLDY    29  24  82 CALM      30.02S
DES MOINES IA  CLOUDY    31  27  85 W6        29.99S
DAVENPORT IA   FOG       38  38 100 S3        29.99F VSB 1
CHICAGO IL     CLOUDY    41  30  65 SW6       29.98F
EAU CLAIRE WI  CLOUDY    28  26  92 SW6       29.95F FOG     WCI  22
LA CROSSE WI   CLOUDY    32  28  85 SW5       29.97F
$$

  *****  SOME NATIONAL WEATHER *****

CITY           SKY/WX    TMP DP  RH WIND       PRES   REMARKS
LA GUARDIA NY  CLOUDY    35  24  64 E8        30.22F
RALEIGH NC     CLOUDY    45  42  89 CALM      30.20F
ATLANTA GA     CLOUDY    47  45  93 E5        30.17S
NEW ORLEANS LA MOCLDY    66  66 100 S9        30.14R
OKLAHOMA CITY  FOG       40  40 100 S6        30.08S VSB 1/16
ALBUQUERQUE NM FAIR      37  30  75 S8        30.09R
SALT LAKE CITY FAIR      30  24  78 CALM      30.26R
LOS ANGELES CA FAIR      63  22  20 NE7       30.01R
BOISE ID       CLOUDY    35  23  61 E7        30.24S
SEATTLE WA     CLOUDY    49  43  80 S20G26    30.01R
$$

*** WEATHER ACROSS MANITOBA...SASKATCHEWAN AND ONTARIO ***
                ***ONTARIO***

CITY           SKY/WX    TMP DP  RH WIND       PRES   REMARKS
GERALDTON      FLURRIES  25  23  93 SW13G21   29.78R WCI  13
THUNDER BAY    CLOUDY    27  23  86 W7        29.87F WCI  19
SIOUX LOOKOUT  FLURRIES  25  21  86 S10       29.72F WCI  15
TORONTO        CLOUDY    19  14  79 NE6       30.09S WCI  11
BIG TROUT LK   MOCLDY    18  16  93 S5        29.51F WCI  11
PICKLE LAKE    NOT AVBL
DRYDEN         PTCLDY    23  21  93 S8        29.72F WCI  14
KENORA         CLEAR     18  16  93 S13       29.70F WCI   4
$$
                *** MANITOBA***

CITY           SKY/WX    TMP DP  RH WIND       PRES   REMARKS
BRANDON        MOCLDY    30  23  74 W15       29.56F WCI  19
DAUPHIN        MOCLDY    32  25  74 SW20G26   29.42F WCI  20
ISLAND LAKE    NOT AVBL
PILOT MOUND      N/A     30  25  80 SW20        N/A  WCI  18
THE PAS        CLOUDY    27  21  80 SW7       29.22F WCI  19
THOMPSON       LGT SNOW  23  21  93 S7        29.15F WCI  15
WINNIPEG       MOCLDY    23  18  80 S17       29.61F WCI   9
LYNN LAKE      FLURRIES  23  21  93 SW5       29.02F WCI  17
CHURCHILL      FLURRIES   3   0  85 SE12      29.36F WCI -13
GILLAM         CLOUDY    14  12  92 SE7       29.27F WCI   4
$$
                ***SASKATCHEWAN***

CITY           SKY/WX    TMP DP  RH WIND       PRES   REMARKS
ESTEVAN        CLOUDY    28  23  80 SW12      29.60F WCI  18
KINDERSLEY     MOCLDY    28  21  74 W14       29.55S WCI  17
LLOYDMINSTER   CLEAR     28  21  74 W14       29.45S WCI  17
PRINCE ALBERT  CLEAR     28  21  74 W12       29.37S WCI  18
REGINA         MOCLDY    32  27  80 SW14      29.53F WCI  22
YORKTON        MOCLDY    30  25  80 SW16G23   29.43F WCI  19
N. BATTLEFORD  CLEAR     28  21  74 W8        29.47S WCI  20
LA RONGE       LGT SNOW  34  32  93 W12G21    29.20R DRFTSNOW
SASKATOON      PTCLDY    28  23  80 SW12      29.48S WCI  18
SWIFT CURRENT  CLOUDY    30  23  74 W15       29.57F WCI  19
$$
NOTE: THESE ARE AUTOMATED STATIONS WITH LIMITED QUALITY CONTROL
      "FAIR" INDICATES FEW OR NO CLOUDS BELOW 12,000 FEET WITH NO
      SIGNIFICANT WEATHER AND/OR OBSTRUCTIONS TO VISIBILITY.
      SKY/WX - SKY CONDITION AND SIGNIFICANT WEATHER.
      TMP - AIR TEMPERATURE.    DP   - DEWPOINT TEMPERATURE.
      RH  - RELATIVE HUMIDITY.  PRES - PRESSURE.
      HX  - HEAT INDEX.         WCI  - WIND CHILL INDEX.
$




USA.gov is the U.S. government's official web portal to all federal, state and local government web resources and services.